Location: ??
(35.1715°N, 139.6450°E)
Time: 18:52:28
(UTC+00:00)

Cosmos 1408 - Pass Details

Date: 05 August 2024
Orbit: 307 x 316 km, 82.5° (Epoch: 19 September)

Event Time Altitude Azimuth Distance (km) Brightness Sun altitude
Rises 18:09:33 0° 346° (NNW) 2,087 6.1 -19.4°
Reaches altitude 10° 18:11:32 10° 339° (NNW) 1,235 4.8 -19.1°
Enters shadow 18:12:22 17° 332° (NNW) 904 4.0 -19.0°
